When you browse on this site, cookies collect data to enhance your experience and personalize the content and advertising you see.
Visit our Privacy Policy to learn more. By continuing to use the site, you agree to this use of cookies and data.
  • In Spain
  • List of Countries
  • For 7 days
  • Water Temperature
  • Weather Map
  • Weather Widgets
  • user-avatar
    Login

    Hourly Weather Labé

    Today, 24 February, Monday

    Time Temperature Precipitation Wind Pressure Humidity
    00:00 +23°C° 0 mm 1 mps 672 mmHg 38%
    01:00 +23°C° 0 mm 1 mps 672 mmHg 40%
    02:00 +23°C° 0 mm 1 mps 672 mmHg 41%
    03:00 +22°C° 0 mm 1 mps 672 mmHg 43%
    04:00 +21°C° 0 mm 1 mps 671 mmHg 44%
    05:00 +19°C° 0 mm 0 mps 671 mmHg 45%
    06:00 +23°C° 0 mm 1 mps 672 mmHg 38%
    07:00 +26°C° 0 mm 1 mps 673 mmHg 32%
    08:00 +28°C° 0 mm 1 mps 674 mmHg 25%
    09:00 +31°C° 0 mm 3 mps 674 mmHg 20%
    10:00 +34°C° 0 mm 4 mps 674 mmHg 16%
    11:00 +36°C° 0 mm 6 mps 674 mmHg 11%
    12:00 +37°C° 0 mm 5 mps 674 mmHg 11%
    13:00 +37°C° 0 mm 5 mps 673 mmHg 11%
    14:00 +39°C° 0 mm 5 mps 672 mmHg 11%
    15:00 +37°C° 0 mm 4 mps 672 mmHg 12%
    16:00 +36°C° 0 mm 4 mps 671 mmHg 12%
    17:00 +35°C° 0 mm 3 mps 671 mmHg 13%
    18:00 +32°C° 0 mm 2 mps 671 mmHg 15%
    19:00 +29°C° 0 mm 2 mps 671 mmHg 18%
    20:00 +26°C° 0 mm 1 mps 672 mmHg 20%
    21:00 +26°C° 0 mm 1 mps 672 mmHg 20%
    22:00 +26°C° 0 mm 1 mps 672 mmHg 20%
    23:00 +26°C° 0 mm 1 mps 672 mmHg 20%

    Tomorrow, 25 February, Tuesday

    Time Temperature Precipitation Wind Pressure Humidity
    00:00 +25°C° 0 mm 1 mps 672 mmHg 21%
    01:00 +25°C° 0 mm 1 mps 671 mmHg 22%
    02:00 +24°C° 0 mm 1 mps 671 mmHg 23%
    03:00 +21°C° 0 mm 0 mps 671 mmHg 25%
    04:00 +19°C° 0 mm 0 mps 671 mmHg 26%
    05:00 +18°C° 0 mm 0 mps 670 mmHg 28%
    06:00 +22°C° 0 mm 1 mps 672 mmHg 24%
    07:00 +25°C° 0 mm 2 mps 673 mmHg 20%
    08:00 +27°C° 0 mm 3 mps 674 mmHg 17%
    09:00 +29°C° 0 mm 4 mps 674 mmHg 14%
    10:00 +32°C° 0 mm 5 mps 674 mmHg 12%
    11:00 +35°C° 0 mm 7 mps 674 mmHg 10%
    12:00 +35°C° 0 mm 6 mps 673 mmHg 10%
    13:00 +36°C° 0 mm 5 mps 672 mmHg 9%
    14:00 +37°C° 0 mm 5 mps 672 mmHg 9%
    15:00 +36°C° 0 mm 4 mps 671 mmHg 10%
    16:00 +35°C° 0 mm 3 mps 671 mmHg 10%
    17:00 +34°C° 0 mm 3 mps 671 mmHg 11%
    18:00 +31°C° 0 mm 2 mps 671 mmHg 13%
    19:00 +28°C° 0 mm 2 mps 671 mmHg 15%
    20:00 +25°C° 0 mm 1 mps 671 mmHg 17%
    21:00 +25°C° 0 mm 1 mps 671 mmHg 17%
    22:00 +25°C° 0 mm 1 mps 671 mmHg 17%
    23:00 +25°C° 0 mm 1 mps 671 mmHg 17%

    Day after tomorrow, 26 February, Wednesday

    Time Temperature Precipitation Wind Pressure Humidity
    00:00 +24°C° 0 mm 1 mps 671 mmHg 17%
    01:00 +21°C° 0 mm 0 mps 671 mmHg 18%
    02:00 +21°C° 0 mm 0 mps 670 mmHg 19%
    03:00 +20°C° 0 mm 0 mps 670 mmHg 20%
    04:00 +19°C° 0 mm 0 mps 670 mmHg 21%
    05:00 +21°C° 0 mm 1 mps 670 mmHg 21%
    06:00 +23°C° 0 mm 1 mps 671 mmHg 19%
    07:00 +25°C° 0 mm 2 mps 672 mmHg 17%
    08:00 +28°C° 0 mm 2 mps 673 mmHg 15%
    09:00 +30°C° 0 mm 3 mps 673 mmHg 13%
    10:00 +33°C° 0 mm 4 mps 673 mmHg 11%
    11:00 +35°C° 0 mm 4 mps 674 mmHg 9%
    12:00 +36°C° 0 mm 4 mps 673 mmHg 9%
    13:00 +37°C° 0 mm 3 mps 672 mmHg 9%
    14:00 +38°C° 0 mm 3 mps 672 mmHg 8%
    15:00 +37°C° 0 mm 2 mps 671 mmHg 9%
    16:00 +36°C° 0 mm 2 mps 671 mmHg 9%
    17:00 +36°C° 0 mm 2 mps 671 mmHg 10%
    18:00 +31°C° 0 mm 2 mps 671 mmHg 12%
    19:00 +28°C° 0 mm 1 mps 671 mmHg 15%
    20:00 +25°C° 0 mm 1 mps 671 mmHg 17%
    21:00 +24°C° 0 mm 1 mps 671 mmHg 18%
    22:00 +23°C° 0 mm 1 mps 671 mmHg 18%
    23:00 +20°C° 0 mm 0 mps 671 mmHg 19%

    27 February, Thursday

    Time Temperature Precipitation Wind Pressure Humidity
    00:00 +21°C° 0 mm 1 mps 671 mmHg 21%
    01:00 +21°C° 0 mm 1 mps 670 mmHg 22%
    02:00 +20°C° 0 mm 1 mps 670 mmHg 23%
    03:00 +20°C° 0 mm 1 mps 670 mmHg 33%
    04:00 +19°C° 0 mm 1 mps 670 mmHg 43%
    05:00 +18°C° 0 mm 1 mps 670 mmHg 53%
    06:00 +21°C° 0 mm 1 mps 671 mmHg 47%
    07:00 +24°C° 0 mm 1 mps 673 mmHg 40%
    08:00 +27°C° 0 mm 1 mps 674 mmHg 33%
    09:00 +29°C° 0 mm 2 mps 674 mmHg 26%
    10:00 +32°C° 0 mm 2 mps 674 mmHg 18%
    11:00 +35°C° 0 mm 3 mps 674 mmHg 11%
    12:00 +36°C° 0 mm 3 mps 674 mmHg 10%
    13:00 +37°C° 0 mm 3 mps 673 mmHg 10%
    14:00 +37°C° 0 mm 3 mps 672 mmHg 9%
    15:00 +36°C° 0 mm 3 mps 672 mmHg 10%
    16:00 +36°C° 0 mm 3 mps 672 mmHg 11%
    17:00 +35°C° 0 mm 3 mps 671 mmHg 12%
    18:00 +31°C° 0 mm 2 mps 671 mmHg 16%
    19:00 +28°C° 0 mm 2 mps 671 mmHg 19%
    20:00 +24°C° 0 mm 1 mps 671 mmHg 23%
    21:00 +23°C° 0 mm 1 mps 671 mmHg 25%
    22:00 +22°C° 0 mm 1 mps 671 mmHg 28%
    23:00 +22°C° 0 mm 1 mps 671 mmHg 30%

    28 February, Friday

    Time Temperature Precipitation Wind Pressure Humidity
    00:00 +21°C° 0 mm 1 mps 671 mmHg 31%
    01:00 +21°C° 0 mm 1 mps 670 mmHg 31%
    02:00 +20°C° 0 mm 1 mps 670 mmHg 32%
    03:00 +19°C° 0 mm 1 mps 670 mmHg 36%
    04:00 +19°C° 0 mm 1 mps 670 mmHg 40%
    05:00 +18°C° 0 mm 1 mps 670 mmHg 44%
    06:00 +19°C° 0 mm 0 mps 671 mmHg 38%
    07:00 +22°C° 0 mm 0 mps 672 mmHg 33%
    08:00 +25°C° 0 mm 0 mps 674 mmHg 28%
    09:00 +30°C° 0 mm 1 mps 674 mmHg 22%
    10:00 +32°C° 0 mm 2 mps 674 mmHg 16%
    11:00 +36°C° 0 mm 3 mps 675 mmHg 9%
    12:00 +37°C° 0 mm 2 mps 674 mmHg 9%
    13:00 +38°C° 0 mm 2 mps 673 mmHg 9%
    14:00 +39°C° 0 mm 2 mps 672 mmHg 8%
    15:00 +38°C° 0 mm 2 mps 672 mmHg 9%
    16:00 +36°C° 0 mm 1 mps 672 mmHg 9%
    17:00 +35°C° 0 mm 1 mps 671 mmHg 10%
    18:00 +31°C° 0 mm 1 mps 671 mmHg 14%
    19:00 +28°C° 0 mm 1 mps 671 mmHg 17%
    20:00 +24°C° 0 mm 1 mps 671 mmHg 20%
    21:00 +23°C° 0 mm 1 mps 671 mmHg 24%
    22:00 +22°C° 0 mm 1 mps 671 mmHg 28%
    23:00 +22°C° 0 mm 1 mps 671 mmHg 32%

    29 February, Saturday

    Time Temperature Precipitation Wind Pressure Humidity
    00:00 +21°C° 0 mm 1 mps 671 mmHg 40%
    01:00 +20°C° 0 mm 1 mps 671 mmHg 48%
    02:00 +19°C° 0 mm 1 mps 670 mmHg 55%
    03:00 +19°C° 0 mm 1 mps 670 mmHg 61%
    04:00 +18°C° 0 mm 1 mps 670 mmHg 67%
    05:00 +18°C° 0 mm 1 mps 670 mmHg 73%
    06:00 +20°C° 0 mm 1 mps 671 mmHg 63%
    07:00 +23°C° 0 mm 1 mps 672 mmHg 54%
    08:00 +26°C° 0 mm 1 mps 673 mmHg 44%
    09:00 +29°C° 0 mm 1 mps 674 mmHg 34%
    10:00 +32°C° 0 mm 2 mps 674 mmHg 23%
    11:00 +36°C° 0 mm 2 mps 675 mmHg 13%
    12:00 +37°C° 0 mm 2 mps 674 mmHg 12%
    13:00 +38°C° 0 mm 2 mps 673 mmHg 11%
    14:00 +39°C° 0 mm 2 mps 672 mmHg 10%
    15:00 +37°C° 0 mm 2 mps 672 mmHg 11%
    16:00 +36°C° 0 mm 2 mps 671 mmHg 12%
    17:00 +35°C° 0 mm 2 mps 671 mmHg 13%
    18:00 +31°C° 0 mm 2 mps 671 mmHg 17%
    19:00 +28°C° 0 mm 1 mps 671 mmHg 21%
    20:00 +24°C° 0 mm 1 mps 670 mmHg 25%
    21:00 +23°C° 0 mm 1 mps 671 mmHg 27%
    22:00 +23°C° 0 mm 1 mps 671 mmHg 30%
    23:00 +22°C° 0 mm 1 mps 671 mmHg 32%
    Show more